Regional Weather Roundup
Issued by NWS

Home | Current Version | Previous Version | Graphics & Text | Print | Product List | Glossary On
Versions: 1 2 3 4 5 6 7 8 9 10 11 12 13 14 15 16 17 18 19 20 21 22 23 24 25 26 27 28 29 30 31 32 33 34 35 36 37 38 39 40 41 42 43 44 45 46 47 48 49 50
000
ASUS43 KOAX 101110
RWRNE

WEATHER ROUNDUP FOR NEBRASKA
NATIONAL WEATHER SERVICE OMAHA NE
500 AM CST WED FEB 10 2016

NOTES: SATELLITE DATA IS BEING USED TO AUGMENT CLOUD COVER ABOVE
       12000 FEET.
       "FAIR" INDICATES FEW OR NO CLOUDS BELOW 12,000 FEET WITH NO
       SIGNIFICANT WEATHER AND/OR OBSTRUCTIONS TO VISIBILITY.

  * THESE STATIONS DO NOT REPORT WEATHER SUCH AS RAIN...SNOW OR FOG.

NEZ001>004-019>022-054>056-101200-
NEBRASKA PANHANDLE

CITY           SKY/WX    TMP DP  RH WIND       PRES   REMARKS
SCOTTSBLUFF    CLOUDY    32  25  75 NW13      30.05F WCI  22
ALLIANCE       CLOUDY    32  25  75 W13       30.01F WCI  22
CHADRON        CLEAR     31  24  75 SW10      30.00F WCI  22
KIMBALL        CLOUDY    36  23  59 W17       30.08F WCI  26
SIDNEY         CLOUDY    35  23  61 W16       30.07F WCI  25
$$

NEZ057>060-069>072-079>082-101200-
SOUTHWEST NEBRASKA

CITY           SKY/WX    TMP DP  RH WIND       PRES   REMARKS
NORTH PLATTE   CLEAR     24  21  88 NW9       30.00F WCI  14
IMPERIAL       CLOUDY    36  24  62 W15       30.04F WCI  27
LEXINGTON      CLOUDY    21  19  90 W3        29.98F
MCCOOK         CLOUDY    28  24  85 W12       30.04F WCI  18
OGALLALA       CLOUDY    31  23  72 SW10      30.02F WCI  22
$$

NEZ005>010-023>029-035>040-094-101200-
NORTH CENTRAL NEBRASKA

CITY           SKY/WX    TMP DP  RH WIND       PRES   REMARKS
VALENTINE      CLEAR     32  28  85 W10       29.91F WCI  24
AINSWORTH      CLEAR     33  29  86 W12       29.90F WCI  24
BROKEN BOW     CLEAR     29  25  85 W10       29.94F WCI  20
O`NEILL        CLOUDY    29  27  90 SE5       29.92F WCI  24
ORD            CLEAR     21  19  92 CALM      29.93F
THEDFORD       CLEAR     35  30  81 W8        29.95F WCI  28
$$

NEZ041-046>049-061>064-073>077-083>087-101200-
SOUTH CENTRAL NEBRASKA

CITY           SKY/WX    TMP DP  RH WIND       PRES   REMARKS
GRAND ISLAND   CLEAR     24  21  88 S7        29.98F WCI  16
AURORA         PTCLDY    26  22  83 S8        29.98F WCI  18
HASTINGS       CLEAR     27  21  78 SW8       29.97F WCI  19
HEBRON         CLEAR     26  19  72 S7        30.05S WCI  19
HOLDREGE       CLOUDY    30  25  83 W12       29.99F WCI  20
YORK           CLOUDY    27  23  86 S13       30.01F WCI  16
$$

NEZ011>018-030>034-042>045-101200-
NORTHEAST NEBRASKA

CITY           SKY/WX    TMP DP  RH WIND       PRES   REMARKS
NORFOLK        CLOUDY    27  21  78 SE7       29.97F WCI  19
ALBION         CLOUDY    27  22  81 E3        29.96F
BLAIR          CLOUDY    24  17  75 S8        30.06F WCI  15
COLUMBUS *     CLOUDY    27  14  59 S7        30.01F WCI  19
FREMONT        CLOUDY    24  17  72 SE7       30.06F WCI  16
WAYNE          CLOUDY    24  19  83 S8        30.00F WCI  15
$$

NEZ050>053-065>068-078-088>093-101200-
SOUTHEAST NEBRASKA

CITY           SKY/WX    TMP DP  RH WIND       PRES   REMARKS
LINCOLN        CLOUDY    27  18  69 S8        30.07F WCI  19
OMAHA EPPLEY   FLURRIES  23  17  78 SE9       30.09F WCI  13
BEATRICE       CLOUDY    28  15  58 S12       30.07F WCI  18
FALLS CITY     CLOUDY    24  17  74 S5        30.13F WCI  18
NEBRASKA CITY  CLOUDY    24  19  81 S8        30.09F WCI  15
PLATTSMOUTH    CLOUDY    23  17  78 SE6       30.09S WCI  16
$$

NEZ044-045-051>053-067-101200-
OMAHA AREA

CITY           SKY/WX    TMP DP  RH WIND       PRES   REMARKS
OMAHA EPPLEY   FLURRIES  23  17  78 SE9       30.09F WCI  13
BLAIR          CLOUDY    24  17  75 S8        30.06F WCI  15
FREMONT        CLOUDY    24  17  72 SE7       30.06F WCI  16
MILLARD        CLOUDY    25  18  74 CALM      30.08F
OFFUTT AFB     CLOUDY    24  17  76 SE6       30.08F WCI  17
PLATTSMOUTH    CLOUDY    23  17  78 SE6       30.09S WCI  16
WAHOO          CLOUDY    26  19  76 SE7       30.06F WCI  18
$$



USA.gov is the U.S. government's official web portal to all federal, state and local government web resources and services.